Time,TemperatureF,DewpointF,PressureIn,WindDirection,WindDirectionDegrees,WindSpeedMPH,WindSpeedGustMPH,Humidity,HourlyPrecipIn,Conditions,Clouds,dailyrainin,SolarRadiationWatts/m^2,SoftwareType,DateUTC
2013-01-17 00:02:00,36.0,28.0,-100.00,ENE,60,8.0,17.0,73,0.00,,,0.00,1.000000,,2013-01-17 08:02:00,
2013-01-17 00:22:00,37.0,30.0,-100.00,ENE,60,7.0,18.0,76,0.00,,,0.00,1.000000,,2013-01-17 08:22:00,
2013-01-17 00:32:00,37.0,30.0,-100.00,ENE,60,7.0,18.0,76,0.00,,,0.00,1.000000,,2013-01-17 08:32:00,
2013-01-17 00:43:00,37.0,30.0,-100.00,ENE,60,7.0,18.0,76,0.00,,,0.00,1.000000,,2013-01-17 08:43:00,
2013-01-17 00:52:00,37.0,30.0,-100.00,ENE,60,7.0,18.0,76,0.00,,,0.00,1.000000,,2013-01-17 08:52:00,
2013-01-17 01:02:00,37.0,30.0,-100.00,ENE,60,7.0,18.0,76,0.00,,,0.00,1.000000,,2013-01-17 09:02:00,
2013-01-17 01:33:00,37.0,30.0,-100.00,East,80,5.0,18.0,76,0.00,,,0.00,0.000000,,2013-01-17 09:33:00,
2013-01-17 01:42:00,37.0,30.0,-100.00,East,80,5.0,18.0,76,0.00,,,0.00,0.000000,,2013-01-17 09:42:00,
2013-01-17 01:52:00,37.0,30.0,-100.00,East,80,5.0,18.0,76,0.00,,,0.00,0.000000,,2013-01-17 09:52:00,
2013-01-17 02:02:00,37.0,30.0,-100.00,East,80,5.0,18.0,76,0.00,,,0.00,0.000000,,2013-01-17 10:02:00,
2013-01-17 02:33:00,36.0,28.0,-100.00,NNW,331,5.0,17.0,73,0.00,,,-99.99,0.000000,,2013-01-17 10:33:00,
2013-01-17 02:43:00,36.0,28.0,-100.00,NNW,331,5.0,17.0,73,0.00,,,-99.99,0.000000,,2013-01-17 10:43:00,
2013-01-17 02:53:00,36.0,28.0,-100.00,NNW,331,5.0,17.0,73,0.00,,,-99.99,0.000000,,2013-01-17 10:53:00,
2013-01-17 03:02:00,36.0,28.0,-100.00,NNW,331,5.0,17.0,73,0.00,,,-99.99,0.000000,,2013-01-17 11:02:00,
2013-01-17 03:33:00,38.0,29.0,-100.00,WSW,243,5.0,20.0,71,0.00,,,0.00,0.000000,,2013-01-17 11:33:00,
2013-01-17 03:43:00,38.0,29.0,-100.00,WSW,243,5.0,20.0,71,0.00,,,0.00,0.000000,,2013-01-17 11:43:00,
2013-01-17 03:53:00,38.0,29.0,-100.00,WSW,243,5.0,20.0,71,0.00,,,0.00,0.000000,,2013-01-17 11:53:00,
2013-01-17 04:02:00,38.0,29.0,-100.00,WSW,243,5.0,20.0,71,0.00,,,0.00,0.000000,,2013-01-17 12:02:00,
2013-01-17 04:23:00,36.0,28.0,-100.00,WSW,251,2.0,18.0,72,0.00,,,0.00,0.000000,,2013-01-17 12:23:00,
2013-01-17 04:33:00,36.0,28.0,-100.00,WSW,251,2.0,18.0,72,0.00,,,0.00,0.000000,,2013-01-17 12:33:00,
2013-01-17 04:43:00,36.0,28.0,-100.00,WSW,251,2.0,18.0,72,0.00,,,0.00,0.000000,,2013-01-17 12:43:00,
2013-01-17 04:53:00,36.0,28.0,-100.00,WSW,251,2.0,18.0,72,0.00,,,0.00,0.000000,,2013-01-17 12:53:00,
2013-01-17 05:02:00,36.0,28.0,-100.00,WSW,251,2.0,18.0,72,0.00,,,0.00,0.000000,,2013-01-17 13:02:00,
2013-01-17 05:33:00,36.0,28.0,-100.00,East,90,5.0,15.0,72,0.00,,,0.00,0.000000,,2013-01-17 13:33:00,
2013-01-17 05:43:00,36.0,28.0,-100.00,East,90,5.0,15.0,72,0.00,,,0.00,0.000000,,2013-01-17 13:43:00,
2013-01-17 05:53:00,36.0,28.0,-100.00,East,90,5.0,15.0,72,0.00,,,0.00,0.000000,,2013-01-17 13:53:00,
2013-01-17 06:03:00,36.0,28.0,-100.00,East,90,5.0,15.0,72,0.00,,,0.00,0.000000,,2013-01-17 14:03:00,
2013-01-17 06:33:00,37.0,28.0,-100.00,ENE,72,7.0,17.0,71,0.00,,,0.00,0.000000,,2013-01-17 14:33:00,
2013-01-17 06:43:00,37.0,28.0,-100.00,ENE,72,7.0,17.0,71,0.00,,,0.00,0.000000,,2013-01-17 14:43:00,
2013-01-17 06:53:00,37.0,28.0,-100.00,ENE,72,7.0,17.0,71,0.00,,,0.00,0.000000,,2013-01-17 14:53:00,
2013-01-17 07:02:00,37.0,28.0,-100.00,ENE,72,7.0,17.0,71,0.00,,,0.00,0.000000,,2013-01-17 15:02:00,
2013-01-17 07:33:00,37.0,28.0,-100.00,West,279,7.0,26.0,71,0.00,,,0.00,0.000000,,2013-01-17 15:33:00,
2013-01-17 07:43:00,37.0,28.0,-100.00,West,279,7.0,26.0,71,0.00,,,0.00,0.000000,,2013-01-17 15:43:00,
2013-01-17 07:53:00,37.0,28.0,-100.00,West,279,7.0,26.0,71,0.00,,,0.00,0.000000,,2013-01-17 15:53:00,
2013-01-17 08:02:00,37.0,28.0,-100.00,West,279,7.0,26.0,71,0.00,,,0.00,0.000000,,2013-01-17 16:02:00,
2013-01-17 08:33:00,37.0,28.0,-100.00,SSE,159,6.0,21.0,70,0.00,,,0.00,2.000000,,2013-01-17 16:33:00,
2013-01-17 08:44:00,37.0,28.0,-100.00,SSE,159,6.0,21.0,70,0.00,,,0.00,2.000000,,2013-01-17 16:44:00,
2013-01-17 08:53:00,37.0,28.0,-100.00,SSE,159,6.0,21.0,70,0.00,,,0.00,2.000000,,2013-01-17 16:53:00,
2013-01-17 09:02:00,37.0,28.0,-100.00,SSE,159,6.0,21.0,70,0.00,,,0.00,2.000000,,2013-01-17 17:02:00,
2013-01-17 09:33:00,40.0,29.0,-100.00,East,82,8.0,17.0,65,0.00,,,0.00,71.000000,,2013-01-17 17:33:00,
2013-01-17 09:43:00,40.0,29.0,-100.00,East,82,8.0,17.0,65,0.00,,,0.00,71.000000,,2013-01-17 17:43:00,
2013-01-17 09:53:00,40.0,29.0,-100.00,East,82,8.0,17.0,65,0.00,,,0.00,71.000000,,2013-01-17 17:53:00,
2013-01-17 10:03:00,40.0,29.0,-100.00,East,82,8.0,17.0,65,0.00,,,0.00,71.000000,,2013-01-17 18:03:00,
2013-01-17 10:23:00,45.0,31.0,-100.00,NW,325,5.0,16.0,57,0.00,,,-99.99,245.000000,,2013-01-17 18:23:00,
2013-01-17 10:34:00,45.0,31.0,-100.00,NW,325,5.0,16.0,57,0.00,,,-99.99,245.000000,,2013-01-17 18:34:00,
2013-01-17 10:44:00,45.0,31.0,-100.00,NW,325,5.0,16.0,57,0.00,,,-99.99,245.000000,,2013-01-17 18:44:00,
2013-01-17 10:53:00,45.0,31.0,-100.00,NW,325,5.0,16.0,57,0.00,,,-99.99,245.000000,,2013-01-17 18:53:00,
2013-01-17 11:02:00,45.0,31.0,-100.00,NW,325,5.0,16.0,57,0.00,,,-99.99,245.000000,,2013-01-17 19:02:00,
2013-01-17 11:23:00,48.0,29.0,-100.00,NNE,32,6.0,18.0,47,0.00,,,0.00,366.000000,,2013-01-17 19:23:00,
2013-01-17 11:33:00,48.0,29.0,-100.00,NNE,32,6.0,18.0,47,0.00,,,0.00,366.000000,,2013-01-17 19:33:00,
2013-01-17 11:43:00,48.0,29.0,-100.00,NNE,32,6.0,18.0,47,0.00,,,0.00,366.000000,,2013-01-17 19:43:00,
2013-01-17 11:53:00,48.0,29.0,-100.00,NNE,32,6.0,18.0,47,0.00,,,0.00,366.000000,,2013-01-17 19:53:00,
2013-01-17 12:02:00,48.0,29.0,-100.00,NNE,32,6.0,18.0,47,0.00,,,0.00,366.000000,,2013-01-17 20:02:00,
2013-01-17 13:34:00,54.0,31.0,-100.00,ENE,67,6.0,14.0,42,-99.99,,,0.00,462.000000,,2013-01-17 21:34:00,
2013-01-17 13:43:00,54.0,31.0,-100.00,ENE,67,6.0,14.0,42,-99.99,,,0.00,462.000000,,2013-01-17 21:43:00,
2013-01-17 13:53:00,54.0,31.0,-100.00,ENE,67,6.0,14.0,42,-99.99,,,0.00,462.000000,,2013-01-17 21:53:00,
2013-01-17 14:03:00,54.0,31.0,-100.00,ENE,67,6.0,14.0,42,-99.99,,,0.00,462.000000,,2013-01-17 22:03:00,
2013-01-17 14:33:00,53.0,30.0,-100.00,NE,54,8.0,16.0,41,0.00,,,0.00,428.000000,,2013-01-17 22:33:00,
2013-01-17 15:33:00,54.0,30.0,-100.00,ENE,63,7.0,18.0,39,0.00,,,0.00,346.000000,,2013-01-17 23:33:00,
2013-01-17 16:33:00,54.0,31.0,-100.00,NNE,28,2.0,16.0,41,0.00,,,0.00,224.000000,,2013-01-18 00:33:00,
2013-01-17 17:33:00,49.0,31.0,-100.00,NNE,13,3.0,10.0,49,0.00,,,0.00,63.000000,,2013-01-18 01:33:00,
2013-01-17 17:43:00,49.0,31.0,-100.00,NNE,13,3.0,10.0,49,0.00,,,0.00,63.000000,,2013-01-18 01:43:00,
2013-01-17 17:52:00,49.0,31.0,-100.00,NNE,13,3.0,10.0,49,0.00,,,0.00,63.000000,,2013-01-18 01:52:00,
2013-01-17 18:02:00,49.0,31.0,-100.00,NNE,13,3.0,10.0,49,0.00,,,0.00,63.000000,,2013-01-18 02:02:00,
2013-01-17 18:33:00,46.0,29.0,-100.00,East,100,7.0,19.0,51,0.00,,,0.00,4.000000,,2013-01-18 02:33:00,
2013-01-17 19:33:00,42.0,27.0,-100.00,NE,53,2.0,18.0,54,0.00,,,0.00,2.000000,,2013-01-18 03:33:00,
2013-01-17 20:33:00,42.0,27.0,-100.00,ENE,72,6.0,9.0,55,0.00,,,0.00,2.000000,,2013-01-18 04:33:00,
2013-01-17 21:33:00,42.0,26.0,-100.00,ENE,72,4.0,16.0,52,0.00,,,0.00,1.000000,,2013-01-18 05:33:00,
2013-01-17 22:33:00,40.0,26.0,-100.00,East,89,7.0,12.0,56,0.00,,,0.00,1.000000,,2013-01-18 06:33:00,
2013-01-17 22:43:00,40.0,26.0,-100.00,East,89,7.0,12.0,56,0.00,,,0.00,1.000000,,2013-01-18 06:43:00,
2013-01-17 22:52:00,40.0,26.0,-100.00,East,89,7.0,12.0,56,0.00,,,0.00,1.000000,,2013-01-18 06:52:00,
2013-01-17 23:33:00,40.0,27.0,-100.00,SSW,196,6.0,16.0,60,0.00,,,0.00,1.000000,,2013-01-18 07:33:00,